Regional Weather Roundup
Issued by NWS

Home | Current Version | Previous Version | Graphics & Text | Print | Product List | Glossary On
Versions: 1 2 3 4 5 6 7 8 9 10 11 12 13 14 15 16 17 18 19 20 21 22 23 24 25 26 27 28 29 30 31 32 33 34 35 36 37 38 39 40 41 42 43 44 45 46 47 48 49 50
856
ASUS45 KCYS 260710
RWRWY

WYOMING REGIONAL WEATHER ROUNDUP
NATIONAL WEATHER SERVICE CHEYENNE WY
100 AM MDT SAT MAY 26 2018

NOTE:  "FAIR" INDICATES FEW OR NO CLOUDS BELOW 12,000 FEET
WITH NO SIGNIFICANT WEATHER AND/OR OBSTRUCTIONS TO VISIBILITY.

WYZ001-260800-
YELLOWSTONE NATIONAL PARK

CITY           SKY/WX    TMP DP  RH WIND       PRES   REMARKS
LK YELLOWSTONE   N/A     37  33  85 NW3       30.08F
W YELLOWSTONE  NOT AVBL

$$
WYZ002>013-054>058-071-098>099-260800-
NORTHERN WYOMING

CITY           SKY/WX    TMP DP  RH WIND       PRES   REMARKS
JACKSON        FAIR      49  41  74 N6        29.98F
CODY           FAIR      58  48  69 S5        29.91F
GREYBULL       FAIR      62  50  64 CALM      29.83R
WORLAND        FAIR      60  49  66 S12       29.84S
SHERIDAN       FAIR      56  52  86 NW3       29.87F
BUFFALO        FAIR      62  49  62 W9        29.94F
GILLETTE       FAIR      52  48  86 S6        29.90F
NEWCASTLE      FAIR      66  48  52 E10G17    29.92F

$$
WYZ014>020-022>026-101>103-260800-
CENTRAL WYOMING

CITY           SKY/WX    TMP DP  RH WIND       PRES   REMARKS
BIG PINEY      FAIR      46  38  73 CALM      30.00F
PINEDALE       FAIR      43  36  75 CALM      30.02S
DUBOIS         FAIR      48  36  61 W8        30.04S
LANDER         FAIR      60  45  57 W6        29.90F
RIVERTON       FAIR      56  43  61 N5        29.92F
CASPER         FAIR      52  48  86 CALM      29.93F
DOUGLAS        FAIR      56  52  86 E9        29.96F

$$
WYZ021-027>030-104>119-260800-
SOUTHERN WYOMING

CITY           SKY/WX    TMP DP  RH WIND       PRES   REMARKS
EVANSTON       FAIR      60  32  34 SW5       30.03S
FORT BRIDGER   FAIR      62  20  20 SW12      30.04F
ROCK SPRINGS   FAIR      63  11  13 S9G16     30.01S
DIXON          FAIR      46  29  51 CALM      30.07S
RAWLINS        FAIR      59  21  23 CALM      30.03S
SARATOGA       FAIR      52  27  37 S3        30.07S
LARAMIE        FAIR      54  34  46 S12       30.09F
CHEYENNE       FAIR      55  45  68 NW3       30.04F
TORRINGTON     FAIR      58  53  84 SE5       29.92F
PINE BLUFFS    FAIR      59  45  58 S5        30.00F

$$




USA.gov is the U.S. government's official web portal to all federal, state and local government web resources and services.